STARLINK-1267, 45384

Orbit data source: Space-Track

STARLINK-1267, 45384 is a payload satellite owned by SpaceX/Seattle (US) in LEO that was launched on Wed, 18 Mar 2020 UTC via an FALCON 9 launch vehicle from the Air Force Eastern Test Range (AFETR). Payload-class satellites include a variety of spacecraft equipped with specific instruments for various scientific and technological missions. These include communications satellites like Starlink; space stations such as the ISS; scientific satellites like the Hubble; Earth observation satellites from companies like Planet Labs, Umbra, and HawkEye 360; GPS; miniature CubeSats for education and research; and military/defense satellites.

Loading next visibility...
Identifier
45384, 2020-019AA
Orbit
LEO
Country
Flag of USUS
Related business
Manufacturer
SpaceX/Seattle
Mission
Operational Commercial Communications
Bus & Motor
STARLINK, Unknown motor
Mass
260 kg wet, ~248 kg dry
Launch date (UTC)
2020-03-18 (6 years ago)
Launch vehicle
FALCON 9
Launch site
Air Force Eastern Test Range (AFETR)
Object type
Payload
Rocket body
Debris
Shape & HBR
Box + 1 Pan, 10.1 m
Radar Cross Section
13.562 m², Large (>1 m²)

Expand to show TLE details & history
Last TLE update: 21 hours ago

TLE from 21 hours ago
0 STARLINK-1267
1 45384U 20019AA  25309.40041326 -.00003133  00000-0 -19156-3 0  9992
2 45384  53.0559 345.2348 0001586 100.8413 259.2754 15.06395971311262
Epoch: 2025-11-05T09:36Z
TLE epoch observation values (Epoch: 2025-11-05T09:36:35.705Z)
Latitude
-0.00007°
Longitude
156.21235°
Altitude
548.308 km
Speed
7.589 km/s
True Right ascension
23h 00m 56s
True Declination
0° 00' 00"
Sunlit
Object was in full shadow at epoch
Visualization orbit readout
Latitude
Unknown
Longitude
Unknown
Altitude
Unknown
Speed
Unknown
Apparent Right ascension
Unknown
Apparent Declination
Unknown
Sunlit
N/A
Visualization observer readout
Local Sidereal Time
02:19:14
Azimuth
Unknown
Elevation
Unknown
Doppler factor
Unknown
Orbital elements
Apogee altitude
548.593 km
Perigee altitude
546.396 km
Semi-major axis
6,925.631 km
Eccentricity
0.00016
Inclination
53.0559°
RAAN
345.2348°
Arg. of periapsis
100.8413°
True anomaly
259.25754°
Mean anomaly
259.2754°
Eccentric anomaly
259.26647°
Mean motion
3.76577 °/min
Orbital period
95.6 mins
BSTAR
-0.00019156
Loading maneuver chart data...
Computing Atmospheric mass density...
Loading historical data...
Loading historical data...
Loading historical data...
Loading historical data...
Loading historical data...
Loading historical data...
Loading historical data...

Documentation

Showing up to 5 results
|